Hourly Data Report for March 29, 2021

OTTAWA INTL A
ONTARIO
Current Station Operator: NAVCAN

45°19'00.000" N
75°40'00.000" W
114.90 m
6106001
71628
YOW

Download Data

Hourly Data (March 2021)
Hourly Data Report for March 29, 2021
TIME
LST
Temp Definition
°C
Dew Point Definition
°C
Rel Hum Definition
%
Precip. Amount Definition
mm

Wind Dir Definition
10's deg

Wind Spd Definition
km/h
Visibility Definition
km
Stn Press Definition
kPa
Hmdx Definition


Wind Chill Definition


Weather Definition


00:00 2.0 0.9 93   28 27 12.9 98.16     LegendNANA
01:00 0.9 -0.3 92   29 42 6.4 98.30     Rain,Snow,Fog
02:00 0.3 -1.7 86   29 44 12.9 98.48     Snow
03:00 -0.7 -3.1 83   30 41 12.9 98.71   -8 Snow
04:00 -1.2 -5.7 72   30 42 12.9 99.02   -9 Snow
05:00 -2.4 -7.4 69   30 50 24.1 99.29   -11 LegendNANA
06:00 -3.8 -8.9 68   29 50 24.1 99.51   -13 LegendNANA
07:00 -4.0 -9.7 65   28 41 24.1 99.75   -13 Mostly Cloudy
08:00 -3.6 -9.1 66   30 35 24.1 99.97   -12 LegendNANA
09:00 -3.3 -10.1 60   29 34 24.1 100.16   -11 LegendNANA
10:00 -1.8 -9.3 57   29 27 24.1 100.31   -8 Mainly Clear
11:00 -0.7 -9.6 51   28 24 24.1 100.40   -7 LegendNANA
12:00 -0.1 -10.6 45   29 40 24.1 100.48   -8 LegendNANA
13:00 0.8 -10.7 42   29 34 24.1 100.56     Clear
14:00 2.0 -10.4 40   29 25 24.1 100.56     LegendNANA
15:00 3.0 -11.2 34   30 30 24.1 100.62     LegendNANA
16:00 3.7 -10.5 35   28 29 24.1 100.66     Clear
17:00 3.5 -9.9 37   30 20 24.1 100.69     LegendNANA
18:00 2.2 -9.9 40   30 14 24.1 100.72     LegendNANA
19:00 0.4 -9.8 47   32 10 24.1 100.79     Mainly Clear
20:00 0.2 -9.6 48   36 2 24.1 100.86     LegendNANA
21:00 -2.8 -8.4 66   13 7 24.1 100.84   -6 LegendNANA
22:00 -3.9 -9.5 65   13 7 24.1 100.84   -7 Clear
23:00 -2.3 -8.4 63   14 10 24.1 100.83   -6 LegendNANA

Notes on Data Quality.

Legend

  • E = Estimated
  • M = Missing
  • NA = Not Available*
  • [empty] = Indicates an unobserved value
Date modified: